Weather History for KDHT - May, 2013

Change the Weather History Date:

Friday, May 3, 2013

  Actual Average Record
Temperature  
Mean Temperature 47 °F 59 °F  
Max Temperature 69 °F 75 °F 93 °F (1996)
Min Temperature 25 °F 44 °F 25 °F (2013)
Degree Days  
Heating Degree Days 18 7  
Month to date heating degree days 57 21  
Since 1 July heating degree days 4337 4623  
Cooling Degree Days 0 1  
Month to date cooling degree days 0 3  
Year to date cooling degree days 11 9  
Moisture  
Dew Point 13 °F    
Average Humidity 33    
Maximum Humidity 55    
Minimum Humidity 10    
Precipitation  
Precipitation 0.00 in 0.05 in 1.69 in (1987)
Month to date precipitation T 0.16  
Year to date precipitation 0.86 3.33  
Snow  
Snow 0.00 in 0.00 in 5.00 in (1978)
Month to date snowfall T 0.0  
Since 1 July snowfall 21.6 18.9  
Snow Depth 0.00 in    
Sea Level Pressure  
Sea Level Pressure 30.22 in    
Wind  
Wind Speed 12 mph (WNW)    
Max Wind Speed 28 mph    
Max Gust Speed 32 mph    
Visibility 10 miles    
Events      
T = Trace of Precipitation, MM = Missing Value Source: NWS Daily Summary

Daily Weather History Graph

Daily Weather History Graph

Search for Another Location

Airport or City:

Trip Planner

Search our weather history database for the weather conditions in past years. The results will help you decide how hot, cold, wet, or windy it might be!

Date:

Astronomy

May. 03, 2013 Rise Set
Actual Time 6:55 AM CDT 8:39 PM CDT
Civil Twilight 6:27 AM CDT 9:07 PM CDT
Nautical Twilight 5:54 AM CDT 9:40 PM CDT
Astronomical Twilight 5:18 AM CDT 10:16 PM CDT
Moon 3:09 AM CDT 2:47 PM CDT
Length of Visible Light 14h 39m
Length of Day
13h 44m
Last Quarter, 37% of the Moon is Illuminated
May 3
Last Quarter
May 9
New
May 17
First Quarter
May 24
Full
May 31
Last Quarter

Hourly Weather History & Observations

Time (CDT) Temp. Windchill Dew Point Humidity Pressure Visibility Wind Dir Wind Speed Gust Speed Precip Events Conditions
12:53 AM 32.0 °F 26.4 °F 12.9 °F 45% 30.51 in 10.0 mi NW 5.8 mph - N/A   Clear
1:53 AM 28.9 °F 23.9 °F 12.0 °F 49% 30.49 in 10.0 mi West 4.6 mph - N/A   Clear
2:53 AM 28.0 °F 20.0 °F 14.0 °F 56% 30.46 in 10.0 mi WNW 8.1 mph - N/A   Clear
3:53 AM 28.0 °F 18.1 °F 14.0 °F 56% 30.44 in 10.0 mi West 11.5 mph - N/A   Clear
4:53 AM 28.9 °F 21.1 °F 12.9 °F 51% 30.42 in 10.0 mi WNW 8.1 mph - N/A   Clear
5:53 AM 26.1 °F 15.6 °F 12.9 °F 58% 30.40 in 10.0 mi West 11.5 mph - N/A   Clear
6:53 AM 26.1 °F 15.6 °F 12.9 °F 58% 30.39 in 10.0 mi West 11.5 mph - N/A   Clear
7:53 AM 32.0 °F 22.5 °F 14.0 °F 48% 30.37 in 10.0 mi West 12.7 mph - N/A   Clear
8:53 AM 43.0 °F 34.0 °F 14.0 °F 31% 30.32 in 10.0 mi West 21.9 mph 27.6 mph N/A   Clear
9:53 AM 50.0 °F - 14.0 °F 24% 30.29 in 10.0 mi West 23.0 mph 31.1 mph N/A   Clear
10:53 AM 54.0 °F - 14.0 °F 21% 30.26 in 10.0 mi West 20.7 mph - N/A   Clear
11:53 AM 57.0 °F - 14.0 °F 18% 30.24 in 10.0 mi West 18.4 mph 23.0 mph N/A   Clear
12:53 PM 60.1 °F - 14.0 °F 16% 30.19 in 10.0 mi WNW 15.0 mph 20.7 mph N/A   Clear
1:53 PM 63.0 °F - 12.9 °F 14% 30.15 in 10.0 mi West 11.5 mph 19.6 mph N/A   Clear
2:53 PM 64.9 °F - 12.0 °F 13% 30.11 in 10.0 mi Variable 6.9 mph 18.4 mph N/A   Clear
3:53 PM 66.9 °F - 10.0 °F 11% 30.06 in 10.0 mi WNW 10.4 mph 21.9 mph N/A   Clear
4:53 PM 68.0 °F - 10.0 °F 11% 30.01 in 10.0 mi West 13.8 mph 24.2 mph N/A   Clear
5:53 PM 68.0 °F - 10.0 °F 11% 30.01 in 10.0 mi North 6.9 mph 18.4 mph N/A   Clear
6:53 PM 66.9 °F - 9.0 °F 10% 30.00 in 10.0 mi North 9.2 mph 23.0 mph N/A   Clear
7:53 PM 64.9 °F - 12.0 °F 13% 29.99 in 10.0 mi NNE 15.0 mph 20.7 mph N/A   Clear
8:53 PM 59.0 °F - 12.9 °F 16% 29.99 in 10.0 mi NE 9.2 mph - N/A   Clear
9:53 PM 55.0 °F - 15.1 °F 21% 30.01 in 10.0 mi East 5.8 mph - N/A   Clear
10:53 PM 48.0 °F - 21.0 °F 34% 30.03 in 10.0 mi ENE 10.4 mph - N/A   Clear
11:53 PM 46.0 °F 40.6 °F 19.9 °F 35% 30.04 in 10.0 mi East 11.5 mph - N/A   Clear